Location: Arcones
(41.1182°N, 3.7238°W)
Time: 00:18:50
(UTC+00:00)

Cosmos 2263 Rocket - Pass Details

Date: 21 March 2026
Orbit: 823 x 847 km, 71.0° (Epoch: 13 April)

Event Time Altitude Azimuth Distance (km) Brightness Sun altitude
Rises 22:05:18 0° 335° (NNW) 3,391 6.2 -38.1°
Reaches altitude 10° 22:07:45 10° 335° (NNW) 2,449 5.2 -38.4°
Enters shadow 22:10:02 25° 334° (NNW) 1,611 4.1 -38.8°
